Theta_e
321 321 324 327 332 336 342 337 331 332 332 333 336 347 346 346 349 355 351 345 344 349 354 349 344 344 345 346 347 347 346 345 337 337 337 339 337 336 335 336 335 335 335 330 325 319 315 321 326
320 322 325 328 334 340 343 333 333 331 331 332 333 340 344 347 346 351 350 346 347 350 354 351 343 344 345 346 346 348 347 346 338 338 340 341 338 335 333 332 332 330 326 322 319 314 318 324 334
319 321 327 329 334 339 341 333 332 330 331 332 334 337 340 343 342 349 350 347 348 351 352 351 342 343 345 347 347 348 348 346 341 341 344 343 337 334 332 331 328 324 321 319 314 315 319 326 333
320 324 325 328 332 332 333 332 330 330 330 330 332 336 339 338 341 349 349 349 350 350 350 352 341 342 343 347 348 348 348 347 343 344 346 342 335 332 329 326 323 322 320 316 315 314 317 324 330
320 323 326 328 329 329 328 330 329 329 330 330 330 332 335 336 349 352 350 350 351 349 348 353 338 338 340 345 347 348 347 347 345 346 345 340 334 330 325 321 320 321 319 316 316 314 314 316 319
322 322 324 327 327 326 327 328 328 328 328 329 329 330 333 330 344 353 352 353 350 349 348 352 339 336 336 338 343 346 347 346 345 346 345 337 334 329 323 321 320 319 317 318 318 317 316 315 316
320 322 320 321 323 325 326 325 326 327 326 329 326 329 332 331 330 349 354 353 350 348 348 352 347 340 335 335 336 340 344 346 346 345 340 336 333 328 323 321 320 318 317 318 319 320 320 320 321
321 322 321 322 322 321 322 324 324 324 325 324 324 331 331 327 328 338 352 353 349 348 347 351 349 346 344 342 334 332 334 338 340 338 336 336 333 328 323 321 320 318 318 319 320 320 320 321 321
320 320 320 320 320 321 322 322 323 322 322 322 323 324 324 323 333 337 346 352 349 347 347 349 349 348 346 345 344 334 331 330 333 336 336 335 340 338 337 331 332 319 318 319 320 320 320 320 319
319 319 319 319 320 320 321 321 320 319 320 321 321 322 322 322 328 337 342 347 350 348 347 348 349 348 347 345 347 344 343 340 340 341 345 343 339 336 335 334 330 324 322 321 320 320 320 319 329
319 320 319 319 319 319 318 318 319 319 320 320 321 322 322 322 323 329 338 341 347 348 347 348 351 351 349 346 346 345 343 341 340 341 344 343 339 339 338 337 336 333 328 332 329 331 331 331 332
317 318 318 318 318 318 319 319 318 317 319 319 320 320 320 322 324 324 328 340 346 347 348 348 351 353 353 348 346 346 343 343 342 342 344 343 342 341 339 335 334 335 334 332 334 332 333 334 338
316 317 316 316 316 315 316 316 317 317 318 318 319 319 320 321 322 323 324 328 340 345 347 350 350 353 353 352 347 347 346 345 344 344 345 343 341 341 340 338 336 335 333 334 334 333 333 335 341
316 315 315 316 316 316 316 316 317 317 318 318 318 319 320 320 322 323 325 328 332 341 346 349 351 353 353 352 351 349 348 346 346 346 346 348 345 343 341 341 339 336 335 333 333 332 333 337 342
316 316 316 317 317 317 317 317 316 317 317 317 318 318 318 319 319 320 321 325 329 328 334 348 352 353 353 352 353 352 349 348 347 347 347 349 348 346 345 342 340 338 337 337 336 335 336 340 342
316 316 316 317 315 316 316 316 318 317 317 318 318 318 318 319 320 320 320 321 322 324 327 337 346 348 353 353 353 352 350 349 347 347 348 350 350 348 348 343 342 341 340 338 336 335 336 338 341
316 314 315 315 315 315 315 316 317 318 318 318 319 319 318 319 320 320 321 321 321 323 326 330 336 345 349 353 353 352 351 350 349 348 348 351 349 343 344 346 343 346 342 340 338 336 336 336 339
316 315 314 316 317 317 317 317 317 318 318 319 319 319 319 319 320 320 321 320 320 321 323 326 331 339 349 352 354 352 350 350 348 348 348 350 349 347 348 349 348 346 343 342 341 339 337 336 335
315 315 316 317 317 317 318 318 318 318 318 318 318 319 319 320 320 319 320 321 321 323 326 327 328 336 348 350 352 352 350 349 349 347 348 348 347 348 350 347 348 346 342 343 341 340 339 336 340
315 316 317 317 317 317 318 318 319 319 319 319 319 319 319 319 320 320 320 320 322 323 324 326 329 332 345 347 348 349 349 348 348 347 348 349 348 348 347 347 346 346 343 342 339 339 338 341 344
315 316 317 318 318 318 318 319 319 319 319 319 319 319 319 319 319 320 320 321 322 323 323 323 326 330 334 342 346 348 348 348 347 347 348 348 348 348 347 346 345 343 339 340 342 341 344 345 344
317 317 317 317 318 319 319 320 320 320 320 320 319 319 320 320 320 321 321 321 321 321 321 322 323 327 329 333 338 344 345 345 344 346 346 347 348 348 346 344 344 345 342 341 341 342 343 342 342
316 316 317 317 319 320 320 321 321 321 320 320 320 320 320 320 319 319 320 319 319 319 320 322 324 324 327 330 333 338 345 342 340 342 343 346 347 348 345 344 345 342 339 330 342 341 340 338 336
317 316 318 319 320 321 320 321 321 322 321 320 319 319 320 318 318 319 318 318 318 318 319 320 323 325 326 328 331 335 339 341 338 339 342 344 347 349 348 348 347 346 345 343 346 343 340 337 333
317 319 321 323 323 324 322 321 322 321 320 320 320 320 318 317 318 317 318 318 317 317 318 319 321 325 326 326 328 331 335 341 345 344 344 343 343 346 348 350 349 349 348 346 343 340 340 340 339
320 321 322 325 324 323 322 323 322 320 320 320 319 317 317 317 317 317 317 317 317 317 317 319 321 324 326 327 327 328 330 335 340 343 342 342 342 345 346 349 347 347 346 344 343 342 342 339 339
320 320 320 322 322 324 323 322 321 320 320 320 319 317 317 316 317 316 316 317 317 317 318 320 321 324 325 327 327 328 329 334 338 340 344 344 343 341 342 345 345 345 344 343 342 342 341 341 340
318 318 322 321 328 329 324 323 323 321 321 320 319 317 316 316 316 316 317 317 318 318 318 320 321 322 323 326 328 328 329 332 335 338 337 330 328 327 330 331 333 334 335 338 340 340 340 341 340
319 320 319 320 322 330 328 324 321 320 320 320 318 316 316 315 316 317 317 317 317 317 318 319 320 319 321 321 326 328 329 328 328 329 328 327 328 326 326 326 326 327 329 331 334 335 337 339 340
317 319 320 329 327 325 329 328 320 320 319 318 317 316 315 316 317 317 317 317 317 316 316 316 317 318 320 319 319 321 325 327 327 328 328 328 328 327 326 327 327 328 328 330 332 332 331 334 336
Wind_Speed
16 15 11 8 7 6 9 5 1 2 2 6 1 4 8 5 8 4 5 11 17 22 23 28 29 26 24 24 26 29 29 27 28 27 24 22 20 19 18 17 16 14 13 11 10 10 10 11 12
12 13 8 4 8 10 9 7 4 5 6 4 1 3 1 5 6 6 11 9 17 21 24 25 29 26 24 24 26 31 31 29 28 27 24 21 19 18 18 17 16 14 13 12 11 11 12 12 11
7 7 7 4 9 11 4 7 4 3 6 6 0 3 3 4 5 3 6 12 18 19 21 23 31 27 24 23 25 30 31 30 29 27 24 22 20 18 17 16 16 14 13 12 12 12 12 11 11
5 5 5 9 12 4 4 6 2 0 5 7 3 4 3 7 3 4 14 14 19 19 21 23 31 29 26 23 24 29 30 30 28 27 24 21 19 19 18 17 14 13 13 12 12 12 12 11 11
5 4 10 11 13 3 6 3 3 3 2 4 6 3 3 8 8 8 14 13 17 20 20 21 32 30 28 25 26 28 29 29 28 26 23 20 19 18 18 17 16 14 13 12 11 11 12 11 11
7 5 10 15 14 8 8 6 7 7 3 4 4 4 2 8 5 5 9 10 14 19 20 21 30 30 29 28 26 26 27 28 27 26 23 20 19 18 17 16 15 15 14 12 11 10 10 10 10
12 8 15 17 14 12 12 7 10 6 8 3 7 5 1 10 8 2 6 9 14 18 20 21 23 27 27 26 27 27 27 27 26 25 23 21 19 18 17 16 16 15 14 12 12 11 10 9 8
6 6 14 10 12 17 8 10 4 9 8 6 4 5 3 12 11 4 7 9 14 18 20 20 23 23 23 23 26 26 27 27 27 26 23 21 19 18 17 17 16 15 14 13 11 11 9 8 8
5 7 12 16 13 10 5 10 6 4 10 10 8 11 8 11 7 7 9 10 14 18 19 19 21 22 22 21 22 26 26 26 26 25 24 21 14 14 13 13 14 15 14 13 11 10 9 9 9
11 11 14 6 12 9 6 8 9 9 12 12 11 11 13 12 7 9 12 13 16 18 20 19 20 22 23 21 20 22 20 20 21 21 19 19 17 15 14 14 16 15 13 12 11 10 10 9 8
10 14 9 8 9 7 10 12 11 10 15 14 12 10 12 11 12 8 12 15 17 17 18 20 21 22 23 22 21 22 22 21 21 21 21 20 18 16 16 12 12 11 12 9 10 9 9 9 10
10 13 10 9 6 11 12 11 12 11 14 12 11 12 12 12 12 12 9 14 15 15 18 21 22 22 25 22 24 23 24 23 23 23 22 20 20 17 16 16 13 12 12 12 11 10 10 10 11
14 9 9 10 11 11 11 14 14 13 10 13 8 10 11 9 10 12 9 11 11 15 17 20 22 24 24 25 24 24 24 25 23 23 24 23 21 19 18 16 15 14 12 11 11 10 10 10 10
5 9 9 8 11 9 11 15 9 9 7 9 11 10 9 8 9 8 10 11 11 13 16 17 22 23 23 26 26 25 24 25 24 24 23 24 22 20 18 17 16 14 13 12 11 10 10 10 9
4 9 10 13 13 12 9 14 16 13 11 10 11 7 8 11 10 11 11 10 12 13 12 16 19 22 25 28 28 27 27 25 25 25 25 25 25 21 19 18 17 16 15 13 13 11 11 10 10
7 7 11 5 4 5 8 12 5 3 5 6 5 6 5 5 8 9 12 14 16 16 14 16 18 21 25 28 28 29 28 27 28 27 26 28 27 24 19 19 20 19 17 14 15 13 12 11 11
11 12 9 7 5 6 9 8 6 6 9 7 8 7 7 6 6 8 12 13 17 18 18 19 20 22 24 25 26 27 26 27 27 27 27 25 33 31 30 24 21 19 20 14 14 15 13 12 11
10 11 8 10 7 8 11 13 12 12 12 11 11 10 9 9 9 5 5 8 10 13 16 19 20 23 23 23 23 24 26 27 28 29 29 27 26 29 27 24 15 20 17 16 16 15 13 12 13
7 9 11 9 9 10 12 12 10 11 11 13 14 12 12 12 11 10 8 7 10 12 11 13 17 22 23 23 24 25 27 25 25 27 27 26 26 26 27 24 22 22 19 18 21 15 10 11 14
12 13 14 11 9 7 15 16 14 14 15 14 14 14 14 14 11 10 7 9 7 10 14 15 15 18 23 25 24 25 23 24 25 24 25 26 27 28 28 26 25 23 22 22 15 12 11 10 10
14 14 12 12 11 13 17 19 19 16 13 13 16 16 15 13 9 7 8 9 11 10 11 12 14 15 19 24 23 21 21 19 23 25 26 29 30 29 28 27 26 21 20 17 20 25 18 15 11
13 12 13 13 13 13 4 14 16 16 11 14 12 11 12 3 4 6 7 10 12 14 14 12 12 14 15 18 24 25 26 27 29 26 27 25 26 27 27 27 23 22 20 16 24 19 25 23 17
14 10 9 12 14 17 19 12 14 12 12 12 11 8 4 2 3 5 8 12 15 15 16 16 16 14 15 16 22 26 29 30 29 27 24 24 24 27 27 27 26 22 23 28 29 28 29 33 29
8 11 15 16 13 16 20 18 15 11 9 2 6 6 1 4 5 6 10 13 15 18 18 17 17 19 17 17 21 26 29 29 29 27 26 24 25 26 27 27 26 26 27 28 30 26 28 31 32
14 13 12 15 14 16 14 8 13 13 7 13 11 3 3 6 7 9 11 12 17 19 22 20 18 20 19 19 20 24 29 30 29 28 25 25 26 25 26 26 25 25 26 25 25 26 26 24 24
16 14 13 19 15 15 6 10 6 2 6 9 4 4 5 7 10 12 13 16 19 21 20 19 20 21 20 20 22 23 25 27 28 27 27 27 25 24 25 26 24 25 25 25 24 25 24 23 24
11 11 13 19 20 17 17 19 17 12 10 7 10 5 7 12 14 16 17 17 18 20 19 16 16 18 18 19 20 21 23 24 24 24 23 24 21 20 21 23 23 24 24 24 24 24 24 22 22
12 11 10 10 12 15 10 10 8 10 14 8 8 7 10 14 15 14 14 19 22 20 16 15 15 15 14 15 15 15 16 19 22 22 23 21 19 18 18 18 18 18 19 20 21 23 23 23 22
11 14 15 14 13 12 13 9 6 5 6 5 8 10 16 16 15 13 13 16 15 18 17 15 16 16 11 12 12 9 9 12 14 17 17 15 13 14 13 14 14 15 16 17 18 20 20 22 22
12 17 17 11 9 11 10 15 16 10 11 3 13 15 16 13 12 12 13 12 12 13 14 15 15 15 14 11 9 10 10 10 11 12 11 10 11 11 12 14 15 15 16 15 15 16 18 18 19
Wind_Direction
334 328 317 254 242 238 235 143 339 82 160 13 348 342 18 355 354 10 113 148 152 156 162 169 175 180 185 190 191 186 180 176 174 175 173 173 170 167 162 161 160 162 166 161 154 152 149 149 147
329 329 259 275 252 219 206 120 135 47 20 354 120 249 266 73 29 91 135 149 160 160 163 170 177 181 186 190 192 188 184 180 179 179 178 178 175 172 169 166 166 166 164 160 162 158 154 153 150
314 314 279 274 248 242 224 168 102 62 66 40 259 348 14 50 66 41 121 151 159 163 166 172 178 182 187 191 191 187 185 184 184 183 184 183 179 177 174 172 169 168 166 166 164 163 157 156 161
292 217 216 246 234 242 294 153 58 40 122 46 36 63 154 51 21 37 148 154 163 168 169 182 180 184 186 190 188 187 188 188 188 189 189 189 185 181 178 175 174 172 170 169 168 167 166 169 171
226 249 248 239 242 219 230 241 282 297 355 30 353 50 31 76 63 116 151 162 169 170 173 181 181 184 188 189 189 189 191 192 194 196 196 195 193 188 184 179 175 176 178 175 174 173 175 180 184
225 260 234 230 219 217 243 250 267 264 270 319 329 318 101 103 75 121 157 171 175 173 174 179 185 187 189 192 193 194 197 199 201 201 202 202 201 196 190 185 183 182 182 180 181 181 183 187 192
246 227 244 245 245 229 235 253 256 278 269 242 337 285 10 67 23 147 173 177 178 177 177 180 185 190 192 195 197 200 201 201 203 206 208 208 205 204 200 193 192 190 187 187 187 191 196 203 206
249 252 247 238 238 242 228 241 265 255 285 336 276 251 240 359 328 253 196 185 182 183 184 184 185 190 191 195 201 203 205 207 207 211 214 213 212 209 208 203 202 199 195 195 197 199 203 216 229
215 236 240 228 235 229 235 229 168 284 269 274 281 287 313 325 325 229 205 190 192 193 192 191 189 191 194 197 201 203 208 210 213 212 215 216 211 221 218 212 224 209 204 202 207 211 217 228 242
213 227 243 207 257 259 267 261 272 277 270 253 257 255 276 301 307 256 213 204 203 198 197 197 197 195 196 198 200 197 200 204 208 211 212 207 209 211 213 217 225 218 218 217 214 220 229 243 248
206 240 243 232 247 266 261 263 262 259 260 259 260 266 268 283 275 257 245 228 202 206 204 204 202 200 202 201 198 201 200 202 206 207 209 208 209 212 211 213 220 215 228 228 236 237 238 242 251
230 236 254 258 265 253 256 269 266 250 263 282 271 269 275 268 266 269 244 221 221 210 209 208 205 203 205 204 207 202 204 203 204 206 207 210 206 206 209 211 209 211 216 221 227 229 236 247 256
232 234 240 249 255 262 274 262 262 265 267 259 258 268 272 272 266 262 250 251 251 221 219 218 212 210 206 207 209 210 210 208 209 206 207 207 213 210 207 209 212 209 214 223 230 239 246 252 257
172 247 248 249 256 254 257 265 252 247 218 254 259 266 264 266 279 279 263 247 240 241 236 222 218 215 210 213 213 211 212 214 211 214 213 211 211 214 211 210 209 217 219 221 230 242 253 258 256
231 260 243 244 246 238 255 261 248 250 258 260 268 267 265 267 281 278 283 270 244 248 243 230 224 218 216 216 216 216 214 213 216 218 214 214 212 216 214 214 213 214 216 220 226 230 243 255 256
243 249 255 177 256 207 215 260 170 296 210 233 243 261 247 256 276 288 291 281 276 274 265 239 230 226 222 222 220 218 218 217 217 219 218 215 214 209 216 223 223 215 209 213 229 229 237 241 255
210 254 209 237 228 252 226 260 175 218 243 261 255 256 262 256 239 262 289 280 263 260 264 257 243 237 231 228 226 224 223 223 221 219 219 217 218 223 220 217 227 221 214 206 223 236 226 239 250
242 220 217 244 167 227 257 254 258 256 263 254 253 256 265 268 264 251 261 292 284 266 262 260 253 242 232 228 227 228 226 225 224 223 219 216 219 221 223 224 212 214 202 216 210 227 229 237 244
266 259 257 257 260 258 261 265 266 261 260 257 253 257 262 265 270 263 261 285 295 294 289 275 262 245 230 225 221 221 222 222 227 227 225 222 218 218 216 219 215 211 215 219 206 196 221 244 245
238 249 253 266 263 253 273 274 269 262 260 256 261 260 262 266 259 261 303 306 309 304 299 294 279 252 234 230 229 231 231 230 229 230 229 225 222 217 214 214 214 213 208 203 203 204 184 210 239
235 250 262 272 292 273 264 266 256 246 239 261 253 255 265 269 276 301 298 315 322 317 310 299 287 273 249 242 237 232 235 236 234 229 229 225 222 219 214 209 211 211 207 202 194 180 171 174 198
250 239 257 272 274 276 318 287 289 270 256 250 254 260 259 346 318 312 320 330 327 322 315 304 292 276 264 248 240 236 231 229 229 231 231 228 224 221 215 210 205 194 189 201 217 203 195 195 165
260 275 261 275 276 283 271 265 263 247 244 247 254 287 41 310 313 342 343 337 327 327 323 315 307 288 266 253 238 238 234 241 242 235 237 224 223 219 214 208 195 199 215 221 224 214 205 205 214
259 267 259 260 265 262 267 258 271 261 267 240 261 196 231 327 315 327 326 323 326 323 320 319 311 301 291 268 248 239 245 239 240 234 231 232 221 216 211 207 206 207 206 211 217 216 217 226 232
235 260 268 262 246 256 253 259 274 294 259 284 310 308 276 301 330 332 328 330 324 319 320 315 314 307 296 281 265 254 248 244 241 236 225 231 220 214 212 205 205 209 212 213 208 214 223 228 230
270 259 254 272 275 283 229 244 242 61 289 309 253 240 273 325 331 328 330 330 323 320 311 310 311 314 310 289 274 262 252 246 242 235 233 228 224 209 207 200 202 206 210 214 216 219 226 227 227
278 243 273 281 275 272 267 261 255 242 251 215 232 255 310 331 326 329 330 330 331 321 312 306 305 306 315 303 281 266 255 243 238 233 223 222 215 204 198 199 201 208 213 218 218 224 226 231 233
256 277 260 229 271 270 255 257 265 202 244 191 238 275 315 320 322 327 327 333 333 327 314 301 310 313 317 315 296 270 253 240 230 220 207 197 188 190 191 195 196 206 209 217 223 230 230 229 228
234 243 240 270 269 272 279 268 74 282 260 226 271 312 322 321 320 316 316 322 325 332 339 326 316 322 336 336 317 286 261 228 216 208 198 184 176 178 189 204 203 215 222 224 227 234 238 233 232
239 266 272 256 258 261 280 264 277 251 253 246 283 318 310 307 302 305 308 307 315 328 336 337 338 339 327 337 332 313 279 244 215 201 188 178 177 184 190 199 203 207 213 211 221 227 233 235 234